Weather reports worldwide

Advertisment
Fair Isle, United Kingdom (3008): temperature & dewpoint: 09.11.2018 00:00:00 - 15.11.2018 00:00:00 (GMT)Fair Isle, United Kingdom (3008): temperature -20cm & temperature -100cm: 09.11.2018 00:00:00 - 15.11.2018 00:00:00 (GMT)Fair Isle, United Kingdom (3008): wind speed & gusts: 09.11.2018 00:00:00 - 15.11.2018 00:00:00 (GMT)Fair Isle, United Kingdom (3008): wind direction: 09.11.2018 00:00:00 - 15.11.2018 00:00:00 (GMT)Fair Isle, United Kingdom (3008): reduced air pressure: 09.11.2018 00:00:00 - 15.11.2018 00:00:00 (GMT)Fair Isle, United Kingdom (3008): visibility: 09.11.2018 00:00:00 - 15.11.2018 00:00:00 (GMT)Fair Isle, United Kingdom (3008): precipitation: 09.11.2018 00:00:00 - 15.11.2018 00:00:00 (GMT)
Date & Time tt [°C] td [°C] tt -20cm [°C] tt -100cm [°C] ff [km/h] ff [kn] fx [km/h] fx [kn] dd ppp [hPa] vv [km] rr [mm]
15.11.2018 00:00:00 11,2 10,5 - - 35 19 50 27 S 1006,9 10 0,0
14.11.2018 23:00:00 11,6 10,8 - - 31 17 - - S 1007,0 14 0,0
14.11.2018 22:00:00 11,5 10,6 - - 31 17 - - S 1006,6 15 0,0
14.11.2018 21:00:00 11,9 11,0 - - 29 16 - - S 1006,3 23 0,0
14.11.2018 20:00:00 11,7 11,2 - - 22 12 - - S 1006,2 17 0,0
14.11.2018 19:00:00 11,1 10,7 - - 18 10 - - S 1005,6 11 0,0
14.11.2018 18:00:00 11,0 10,7 - - 21 11 - - S 1005,4 12 0,0
14.11.2018 17:00:00 10,6 10,4 - - 21 11 - - S 1005,1 12 0,0
14.11.2018 16:00:00 10,3 10,2 - - 21 11 - - S 1005,0 9 0,0
14.11.2018 15:00:00 10,3 10,0 - - 22 12 - - S 1005,3 8 0,0
14.11.2018 14:00:00 10,4 10,0 - - 24 13 - - S 1005,4 8 0,0
14.11.2018 13:00:00 10,5 10,0 - - 28 15 - - S 1005,9 9 0,0
14.11.2018 12:00:00 10,4 9,8 - - 31 17 48 26 S 1006,2 8 0,0
14.11.2018 11:00:00 10,4 9,8 - - 35 19 52 28 S 1006,4 9 0,0
14.11.2018 10:00:00 10,4 9,6 - - 37 20 48 26 S 1006,5 10 0,0
14.11.2018 09:00:00 10,4 9,7 9,5 9,5 35 19 54 29 S 1006,8 9 0,0
14.11.2018 08:00:00 10,3 9,6 - - 35 19 55 30 S 1006,3 8 0,0
14.11.2018 07:00:00 10,4 9,4 - - 39 21 54 29 S 1006,5 11 0,0
14.11.2018 06:00:00 10,4 9,2 - - 35 19 48 26 S 1006,4 13 0,0
14.11.2018 05:00:00 10,2 8,9 - - 35 19 48 26 S 1006,8 14 0,2
14.11.2018 04:00:00 9,8 8,8 - - 34 18 48 26 S 1007,2 13 0,0
14.11.2018 03:00:00 9,4 8,1 - - 35 19 48 26 S 1007,3 14 0,6
14.11.2018 02:00:00 9,5 7,9 - - 39 21 54 29 S 1008,3 12 0,0
14.11.2018 01:00:00 9,5 7,6 - - 35 19 55 30 S 1008,6 19 0,2
14.11.2018 00:00:00 9,8 7,1 - - 39 21 54 29 S 1008,8 18 0,0
13.11.2018 23:00:00 9,3 6,9 - - 31 17 - - S 1009,2 24 0,0
13.11.2018 22:00:00 9,2 7,6 - - 31 17 - - S 1009,8 30 0,0
13.11.2018 21:00:00 9,0 7,0 - - 26 14 - - S 1009,7 35 0,0
13.11.2018 20:00:00 9,1 7,1 - - 22 12 - - SSW 1010,1 27 0,0
13.11.2018 19:00:00 8,8 7,0 - - 21 11 - - SW 1009,8 22 0,0
13.11.2018 18:00:00 9,1 7,5 - - 26 14 - - WSW 1009,4 35 0,0
13.11.2018 17:00:00 9,0 8,1 - - 31 17 - - WSW 1008,7 30 0,2
13.11.2018 16:00:00 9,4 8,5 - - 26 14 - - WSW 1007,8 4,2 0,2
13.11.2018 15:00:00 9,8 8,4 - - 26 14 - - WSW 1007,0 20 0,0
13.11.2018 14:00:00 9,8 8,3 - - 31 17 - - SW 1006,3 30 0,0
13.11.2018 13:00:00 10,0 7,9 - - 26 14 - - WSW 1005,5 30 0,0
13.11.2018 12:00:00 9,9 8,5 - - 21 11 - - WSW 1004,7 35 0,0
13.11.2018 11:00:00 9,6 7,7 - - 21 11 - - WSW 1004,0 35 0,0
13.11.2018 10:00:00 9,5 8,6 - - 21 11 - - WSW 1003,1 30 0,0
13.11.2018 09:00:00 8,6 7,7 9,5 9,5 15 8 - - WSW 1002,2 40 0,0
13.11.2018 08:00:00 8,6 7,2 - - 15 8 - - SW 1001,3 28 0,0
13.11.2018 07:00:00 8,9 7,6 - - 16 9 - - SW 1000,6 20 0,0
13.11.2018 06:00:00 9,1 8,2 - - 16 9 - - SSW 1000,1 18 0,0
13.11.2018 05:00:00 8,8 7,8 - - 16 9 - - S 999,6 18 0,0
13.11.2018 04:00:00 9,3 8,2 - - 22 12 - - S 999,2 18 0,0
13.11.2018 03:00:00 9,5 8,4 - - 22 12 - - S 999,1 16 0,0
13.11.2018 02:00:00 9,4 8,0 - - 24 13 - - S 999,2 19 0,0
13.11.2018 01:00:00 9,7 8,3 - - 21 11 - - S 999,0 16 0,0
13.11.2018 00:00:00 9,7 8,4 - - 26 14 - - S 999,0 14 0,0
12.11.2018 23:00:00 9,8 8,5 - - 28 15 - - S 998,9 15 0,0
12.11.2018 22:00:00 10,0 8,7 - - 31 17 - - S 999,0 14 0,0
12.11.2018 21:00:00 10,0 8,8 - - 29 16 46 25 S 999,2 14 0,0
12.11.2018 20:00:00 9,9 8,9 - - 31 17 - - S 999,2 12 0,0
12.11.2018 19:00:00 9,7 8,5 - - 34 18 46 25 S 999,2 12 0,0
12.11.2018 18:00:00 9,6 8,4 - - 35 19 46 25 S 999,1 14 0,0
12.11.2018 17:00:00 9,7 8,7 - - 34 18 46 25 S 998,9 13 0,0
12.11.2018 16:00:00 9,8 8,9 - - 34 18 - - S 998,7 12 0,0
12.11.2018 15:00:00 10,0 8,9 - - 34 18 - - SSE 998,5 13 0,0
12.11.2018 14:00:00 10,4 9,0 - - 31 17 - - S 998,5 12 0,0
12.11.2018 13:00:00 10,5 9,0 - - 34 18 46 25 S 998,5 13 0,0
12.11.2018 12:00:00 10,6 8,8 - - 34 18 - - S 998,4 12 0,0
12.11.2018 11:00:00 10,4 8,7 - - 31 17 - - S 998,2 13 0,0
12.11.2018 10:00:00 10,0 8,2 - - 29 16 - - S 998,0 13 0,0
12.11.2018 09:00:00 9,7 8,0 9,5 9,5 34 18 46 25 S 997,8 15 0,0
12.11.2018 08:00:00 9,5 7,8 - - 31 17 50 27 S 997,4 21 0,0
12.11.2018 07:00:00 9,5 7,4 - - 34 18 46 25 S 997,2 19 0,0
12.11.2018 06:00:00 9,3 7,5 - - 29 16 - - S 996,8 22 0,0
12.11.2018 05:00:00 8,9 6,8 - - 28 15 - - S 996,6 27 0,0
12.11.2018 04:00:00 8,3 6,3 - - 28 15 - - S 996,2 35 0,0
12.11.2018 03:00:00 8,8 6,8 - - 28 15 - - S 995,9 35 0,0
12.11.2018 02:00:00 8,9 6,8 - - 29 16 48 26 SSE 995,7 30 0,0
12.11.2018 01:00:00 9,5 8,3 - - 26 14 - - SE 995,5 16 0,0
12.11.2018 00:00:00 9,8 8,3 - - 35 19 - - SSE 995,5 17 0,0
11.11.2018 23:00:00 9,8 8,2 - - 28 15 - - SSE 995,3 15 0,0
11.11.2018 22:00:00 9,4 7,4 - - 26 14 - - SSE 995,0 21 0,0
11.11.2018 21:00:00 9,6 8,2 - - 28 15 - - SSE 994,8 18 0,0
11.11.2018 20:00:00 9,6 7,5 - - 28 15 - - SSE 994,5 21 0,0
11.11.2018 19:00:00 9,6 7,7 - - 26 14 - - SSE 994,2 17 0,0
11.11.2018 18:00:00 9,7 8,0 - - 22 12 - - SSE 993,6 15 0,0
11.11.2018 17:00:00 9,4 7,8 - - 21 11 - - SSE 993,3 18 0,0
11.11.2018 16:00:00 9,3 7,5 - - 18 10 - - SSE 992,8 18 0,0
11.11.2018 15:00:00 9,3 7,0 - - 18 10 - - S 992,4 20 0,0
11.11.2018 14:00:00 10,2 7,5 - - 22 12 - - S 992,0 35 0,0
11.11.2018 13:00:00 10,4 8,0 - - 28 15 - - S 992,1 20 0,0
11.11.2018 12:00:00 10,6 8,7 - - 28 15 - - SSE 991,9 18 0,0
11.11.2018 11:00:00 10,1 8,4 - - 29 16 - - SSE 991,7 16 0,0
11.11.2018 10:00:00 10,0 8,6 - - 34 18 - - SSE 991,5 14 0,0
11.11.2018 09:00:00 10,0 9,2 9,5 9,5 22 12 - - SE 991,4 5 0,0
11.11.2018 08:00:00 9,8 9,0 - - 29 16 - - SE 990,9 11 0,0
11.11.2018 07:00:00 10,0 9,2 - - 29 16 48 26 SE 990,4 9 0,0
11.11.2018 06:00:00 10,2 9,6 - - 28 15 - - SE 990,1 9 0,0
11.11.2018 05:00:00 10,3 9,7 - - 28 15 48 26 SE 990,0 7 0,0
11.11.2018 04:00:00 10,3 9,6 - - 35 19 63 34 SE 989,9 7 0,2
11.11.2018 03:00:00 10,0 9,2 - - 41 22 59 32 SE 990,0 8 0,2
11.11.2018 02:00:00 9,7 8,8 - - 26 14 - - ESE 990,4 7 0,2
11.11.2018 01:00:00 9,8 8,5 - - 31 17 - - SE 991,2 10 0,0
11.11.2018 00:00:00 9,9 8,5 - - 28 15 - - SE 991,5 12 0,0
10.11.2018 23:00:00 9,9 8,4 - - 21 11 - - SE 991,8 13 0,0
10.11.2018 22:00:00 9,8 7,6 - - 24 13 - - SSE 992,0 9 0,0
10.11.2018 21:00:00 9,6 7,3 - - 26 14 - - SSE 991,7 13 0,0
10.11.2018 20:00:00 9,2 6,9 - - 26 14 - - S 991,1 12 0,0
10.11.2018 19:00:00 9,3 6,8 - - 26 14 - - S 990,1 17 0,0
10.11.2018 18:00:00 9,3 6,7 - - 29 16 46 25 S 989,5 13 0,0
10.11.2018 17:00:00 9,4 6,6 - - 35 19 - - S 988,3 17 0,0
10.11.2018 16:00:00 9,6 6,3 - - 35 19 46 25 SSW 987,2 21 0,0
10.11.2018 15:00:00 9,9 7,5 - - 29 16 - - S 985,9 18 0,0
10.11.2018 14:00:00 10,4 8,4 - - 28 15 - - S 985,1 11 0,0
10.11.2018 13:00:00 10,7 8,8 - - 31 17 - - S 984,4 11 0,0
10.11.2018 12:00:00 10,4 9,9 - - 29 16 - - SSE 984,2 6 0,0
10.11.2018 11:00:00 10,1 9,9 - - 28 15 - - SE 984,1 8 0,2
10.11.2018 10:00:00 10,1 9,8 - - 31 17 61 33 SE 984,2 6 0,4
10.11.2018 09:00:00 10,0 9,2 9,5 9,4 48 26 83 45 SE 984,2 5 1,4
10.11.2018 08:00:00 9,9 8,4 - - 59 32 94 51 SE 984,4 4,7 0,8
10.11.2018 07:00:00 10,1 9,0 - - 57 31 89 48 SE 984,4 4,0 1,4
10.11.2018 06:00:00 10,0 8,7 - - 50 27 87 47 ESE 984,7 3,7 0,8
10.11.2018 05:00:00 10,0 9,0 - - 54 29 91 49 ESE 985,4 4,6 0,8
10.11.2018 04:00:00 10,1 8,7 - - 42 23 78 42 ESE 986,6 5 0,0
10.11.2018 03:00:00 10,4 8,5 - - 48 26 85 46 ESE 987,8 8 0,0
10.11.2018 02:00:00 10,3 8,8 - - 57 31 85 46 SE 989,0 6 0,2
10.11.2018 01:00:00 9,9 8,8 - - 57 31 91 49 ESE 989,9 6 0,0
10.11.2018 00:00:00 9,9 8,9 - - 52 28 83 45 ESE 991,2 5 0,2
09.11.2018 23:00:00 10,2 8,3 - - 50 27 83 45 ESE 992,9 7 0,0
09.11.2018 22:00:00 9,9 8,1 - - 48 26 83 45 ESE 994,2 6 0,0
09.11.2018 21:00:00 9,7 7,8 - - 46 25 85 46 ESE 995,6 9 0,0
09.11.2018 20:00:00 9,6 7,4 - - 46 25 83 45 ESE 997,0 8 0,0
09.11.2018 19:00:00 9,6 6,9 - - 48 26 80 43 ESE 998,0 10 0,0
09.11.2018 18:00:00 9,7 7,4 - - 50 27 78 42 SE 999,5 10 0,0
09.11.2018 17:00:00 9,7 7,3 - - 55 30 81 44 SE 1000,5 10 0,0
09.11.2018 16:00:00 9,8 7,3 - - 57 31 83 45 SE 1001,3 10 0,0
09.11.2018 15:00:00 9,9 7,3 - - 50 27 70 38 SE 1002,2 9 0,0
09.11.2018 14:00:00 9,9 6,3 - - 46 25 74 40 SE 1003,2 11 0,0
09.11.2018 13:00:00 10,1 7,3 - - 50 27 78 42 SE 1004,2 8 0,0
09.11.2018 12:00:00 10,1 7,1 - - 55 30 81 44 SE 1004,8 11 0,0
09.11.2018 11:00:00 10,1 7,7 - - 57 31 81 44 SE 1005,1 9 0,0
09.11.2018 10:00:00 10,1 7,1 - - 59 32 83 45 SSE 1005,2 8 0,0
09.11.2018 09:00:00 10,0 7,0 9,5 9,4 57 31 80 43 SSE 1005,2 9 0,0
09.11.2018 08:00:00 10,0 7,1 - - 61 33 81 44 SSE 1005,2 10 0,0
09.11.2018 07:00:00 10,0 7,3 - - 59 32 80 43 SSE 1005,2 9 0,0
09.11.2018 06:00:00 10,0 7,3 - - 61 33 83 45 SSE 1004,9 8 0,0
09.11.2018 05:00:00 10,1 7,6 - - 54 29 78 42 SSE 1005,0 9 0,0
09.11.2018 04:00:00 10,2 8,1 - - 55 30 74 40 SSE 1005,1 9 0,0
09.11.2018 03:00:00 10,4 8,3 - - 48 26 72 39 SSE 1005,6 9 0,0
09.11.2018 02:00:00 10,3 9,0 - - 54 29 68 37 SSE 1005,7 8 0,2
09.11.2018 01:00:00 10,3 9,3 - - 44 24 63 34 SE 1006,1 9 0,0
09.11.2018 00:00:00 9,9 8,8 - - 34 18 61 33 SE 1006,9 12 0,0

tt = temperature
td = dewpoint
tt -20cm = temperature -20cm
tt -100cm = temperature -100cm
ff = wind speed
fx = gusts
dd = wind direction
ppp = reduced air pressure
vv = visibility
rr = precipitation

Next stations